{"data":{"norad_id":64756,"epoch":"2026-09-20T14:30:57.279168Z","epoch_age_seconds":118800,"freshness":"FRESH","line1":"1 64756U 25147B   26263.60482962  .00015608  00000+0  51339-3 0  9996","line2":"2 64756  53.1579  56.0081 0001481  81.4321 278.6848 15.31717554 68560","mean_motion":15.31717554,"eccentricity":0.0001481,"inclination_deg":53.1579,"raan_deg":56.0081,"arg_perigee_deg":81.4321,"mean_anomaly_deg":278.6848,"bstar":0.00051339,"rev_number":6856,"period_min":94.012110538233,"perigee_km":469.67335723147,"apogee_km":471.70197909818,"semimajor_km":6848.8246681648,"source":"CELESTRAK","updated_at":"2026-09-21T09:00:35.415012Z"}}